Flag for U.S.A. Weather past 2 weeks in Atlanta, Georgia, U.S.A.

Now
59 °F

Clear.


Feels Like: 59 °F
Forecast: 52 / 72 °F
Wind: No wind

Location: Fulton County Airport-Brown Field

Current Time: Oct 20, 2014 at 10:41:51 PM

Latest Report: Oct 20, 2014 at 9:53 PM


Visibility: 10 mi

Pressure: 30.01 "Hg

Humidity: 84%

Dew point: 54 °F

Location of AtlantaLocation

Historic Weather in Atlanta — Graph

°F

Atlanta temperature yesterday

Maximum temperature yesterday: 70 °F (at 4:53 PM)
Minimum temperature yesterday: 47 °F (at 7:53 AM)
Average temperature yesterday: 57 °F

Past Weeks' High & Low Weather Summary

 TemperatureHumidityPressure
High85 °F (Oct 10, 2:53 PM)97% (Oct 9, 1:53 AM)30.16 "Hg (Oct 9, 1:53 AM)
Low44 °F (Oct 20, 7:53 AM)37% (Oct 17, 5:53 PM)29.75 "Hg (Oct 14, 2:53 PM)
Average66 °F74%30.00 "Hg
* Reported Oct 5 8:53 PM — Oct 20 8:53 PM, Atlanta, Weather by CustomWeather, © 2014

Note: Actual official high and low records may vary slightly from our data, if they occured in-between our weather recording intervals... More about our weather records

Advertising

Atlanta weather history for previous 24 hours

 ConditionsComfort  
Time TempWeatherWind HumidityBarometerVisibility
8:53 PM
Oct 20
59 °FClear.No wind81%30.01 "Hg10 mi
7:53 PM61 °FSunny.No wind75%30.01 "Hg10 mi
6:53 PM68 °FSunny.3 mph53%29.99 "Hg10 mi
5:53 PM71 °FSunny.6 mph44%29.98 "Hg10 mi
4:53 PM71 °FSunny.5 mph44%29.99 "Hg10 mi
3:53 PM72 °FSunny.8 mph43%30.00 "Hg10 mi
2:53 PM71 °FPassing clouds.8 mph45%30.01 "Hg10 mi
1:53 PM70 °FPassing clouds.7 mph49%30.04 "Hg10 mi
12:53 PM68 °FSunny.6 mph53%30.07 "Hg10 mi
11:53 AM66 °FSunny.9 mph56%30.10 "Hg10 mi
10:53 AM62 °FSunny.3 mph70%30.12 "Hg10 mi
9:53 AM55 °FSunny.No wind83%30.13 "Hg9 mi
8:53 AM49 °FSunny.No wind90%30.11 "Hg10 mi
7:53 AM44 °FClear.No wind93%30.11 "Hg10 mi
6:53 AM45 °FClear.No wind93%30.10 "Hg10 mi
5:53 AM45 °FClear.No wind93%30.10 "Hg10 mi
4:53 AM47 °FClear.No wind90%30.09 "Hg10 mi
3:53 AM46 °FClear.No wind93%30.09 "Hg10 mi
2:53 AM47 °FClear.No wind93%30.09 "Hg10 mi
1:53 AM48 °FClear.No wind93%30.10 "Hg9 mi
12:53 AM49 °FClear.No wind90%30.09 "Hg10 mi
10:53 PM
Oct 19
51 °FClear.No wind92%30.10 "Hg7 mi
Weather by CustomWeather, © 2014

See weather overviewHow to use our weather pages